Regional Weather Roundup
Issued by NWS

Home | Current Version | Previous Version | Text Only | Print | Product List | Glossary Off
Versions: 1 2 3 4 5 6 7 8 9 10 11 12 13 14 15 16 17 18 19 20 21 22 23 24 25 26 27 28 29 30 31 32 33 34 35 36 37 38 39 40 41 42 43 44 45 46 47 48 49 50

000
ASUS45 KTFX 272204
RWRMT
MONTANA HOURLY WEATHER ROUNDUP
NATIONAL WEATHER SERVICE GREAT FALLS MT
404 PM MDT SUN JUL 27 2014

NOTE: "FAIR" INDICATES FEW OR NO CLOUDS BELOW 12000 FEET WITH NO
SIGNIFICANT WEATHER AND/OR OBSTRUCTIONS TO VISIBILITY.

* THESE STATIONS ARE NOT UNDER NWS QUALITY CONTROL. THEY DO NOT
   REPORT WEATHER SUCH AS PRECIPITATION OR FOG.

MTZ001>007-043-272300-
WEST OF THE DIVIDE
CITY           SKY/WX    TMP DP  RH WIND       PRES   REMARKS
KALISPELL      SUNNY     84  37  19 SE3       30.19F
MISSOULA       SUNNY     91  37  15 VRB7      30.16F
BUTTE          SUNNY     84  27  12 NE6       30.30F
MULLAN PASS    SUNNY     73  30  20 VRB5      30.37S
* ESSEX        N/A       84  36  18 NW5        N/A
* LINCOLN      N/A       85  29  13 W5G12      N/A
* LOOKOUT PASS N/A       80  35  20 N6         N/A
* POLSON       N/A       87  41  20 NW3        N/A
* RONAN APT    SUNNY     82  43  25 N5         N/A
* SEELEY LAKE  N/A       87  37  17 NW5G12     N/A
* THOMP F APT  SUNNY     86  23  10 NE3G17     N/A
* YAAK HILL    N/A       92  42  18 SW2        N/A
$$

MTZ008-052>055-272300-
SOUTHWEST MONTANA
CITY           SKY/WX    TMP DP  RH WIND       PRES   REMARKS
BOZEMAN        SUNNY     88  37  16 N6        30.25F
DILLON         SUNNY     86  39  19 CALM      30.27F
W YELLOWSTONE  LGT RAIN  82  25  12 S3        30.37S
* THREE FORKS  SUNNY     88  39  18 N/A        N/A
* BOULDER HILL N/A       81  37  21 VRB8       N/A
* MONIDA PASS  N/A       83  25  12 NE9G16     N/A
* RAYNOLDS PAS N/A       83  76  79 W12G22     N/A   HI  91
* WHITEHALL    N/A       90  33  13 S5G10      N/A
* WISE RIVER   N/A       86  25  11 NW7G12     N/A
$$

MTZ009>010-012-014-046-048-049-054-272300-
EAST SLOPES AND CENTRAL MONTANA
CITY           SKY/WX    TMP DP  RH WIND       PRES   REMARKS
CUT BANK       SUNNY     82  39  22 SW6       30.25F
GREAT FALLS    SUNNY     88  36  16 NE7       30.22F
HELENA         SUNNY     90  34  14 E10       30.20F
* CONRAD       SUNNY     82  43  25 N/A        N/A
* DEARBORN     N/A       87  38  18 N7G14      N/A
* EAST GLACIER N/A       81  33  18 W7G14      N/A
* MONARCH      N/A       82  37  20 NE3G10     N/A
* ROGERS PASS  N/A       81  24  12 SE6G17     N/A
* SAINT MARY   N/A       81  33  18 S6G12      N/A
* SWEET GRASS  N/A       82  37  20 S10G16     N/A
$$

MTZ011-013-016-021-035-040-045-047-050-051-272300-
NORTH CENTRAL MONTANA
CITY           SKY/WX    TMP DP  RH WIND       PRES   REMARKS
HAVRE          SUNNY     84  43  24 VRB3      30.22F
LEWISTOWN      SUNNY     84  36  18 E5        30.27F
* CHESTER      N/A       85  37  18 NW3        N/A
* DENTON       N/A       85  40  20 E9G15      N/A
* JUDITH GAP   N/A       81  42  25 SE6G16     N/A
* LOMA         N/A       88  38  17 VRB6G15    N/A
$$

MTZ017>020-022>027-061-062-272300-
NORTHEAST MONTANA
CITY           SKY/WX    TMP DP  RH WIND       PRES   REMARKS
GLASGOW        SUNNY     81  50  34 VRB3      30.23F
GLENDIVE       PTSUNNY   77  50  39 N3        30.28S
JORDAN         SUNNY     84  39  20 N/A       30.24F
SIDNEY         SUNNY     75  54  48 NE12      30.28F
WOLF POINT     PTCLDY    82  50  33 S6        30.24F
* BEAVER HILL  N/A       74  52  46 E2G7       N/A
* CIRCLE       N/A       80  53  39 W8         N/A
* LINDSAY DVD  N/A       76  49  39 N2G9       N/A
* NAVAJO       N/A       70  55  59 SE6G11     N/A
$$

MTZ028>042-056>058-272300-
SOUTHCENTRAL AND SOUTHEAST MONTANA
CITY           SKY/WX    TMP DP  RH WIND       PRES   REMARKS
BAKER          SUNNY     75  48  39 NW6       30.29F
BILLINGS       SUNNY     88  41  19 E12       30.25F
LIVINGSTON     SUNNY     88  34  15 E9        30.26F
MILES CITY     SUNNY     84  43  24 N14       30.25F
* LAUREL APT   SUNNY     86  43  22 NE9        N/A
* ROUNDUP APT  SUNNY     84  39  20 VRB6       N/A
* ALZADA       N/A       81  42  25 N5         N/A
* HYSHAM       N/A       83  45  26 NE4G9      N/A
* LAME DEER    N/A       77  41  28 NE5G12     N/A
* REED POINT   N/A       89  44  21 NE6        N/A
* ROSCOE HILL  N/A       84  40  21 E3         N/A
$$

REGIONAL REPORTS...DAKOTAS
CITY           SKY/WX    TMP DP  RH WIND       PRES   REMARKS
WILLISTON      SUNNY     75  52  45 N10       30.29S
DICKINSON      SUNNY     73  52  48 NW9       30.28F
CROSBY         PTSUNNY   68  57  68 N5        30.30S
TIOGA          CLOUDY    66  55  68 N7        30.33S
WATFORD CITY   PTCLDY    72  52  49 NW5       30.28S
BISMARCK       CLOUDY    68  52  57 N13G20    30.28R
GRAND FORKS    CLOUDY    66  57  73 N10G18    30.16S
FARGO          CLOUDY    66  57  73 NW17      30.15R
BUFFALO SD     SUNNY     77  52  42 CALM      30.22F
RAPID CITY     SUNNY     82  48  31 NE8       30.28S
$$

REGIONAL REPORTS...WYOMING/IDAHO/WASHINGTON
CITY           SKY/WX    TMP DP  RH WIND       PRES   REMARKS
GILLETTE       SUNNY     82  37  20 SE3       30.30F
SHERIDAN       SUNNY     86  41  20 E7        30.28F
YELLOWSTONE LA SUNNY     73  52  48 VRB3      30.48F
SALMON         SUNNY     88  36  16 N7        30.12F
MULLAN PASS    SUNNY     73  30  20 VRB5      30.37S
SAND POINT     PTCLDY    88  32  13 CALM      30.14F
SPOKANE        PTCLDY    90  30  12 VRB3      30.13F

$$



USA.gov is the U.S. government's official web portal to all federal, state and local government web resources and services.